Location: Newark
(25.4800°N, 85.7200°E)
Time: 23:18:02
(UTC+00:00)

Transit 4A - Pass Details

Date: 02 September 2019
Orbit: 865 x 980 km, 66.8° (Epoch: 16 September)

Event Time Altitude Azimuth Distance (km) Brightness Sun altitude
Rises 08:58:52 0° 197° (SSW) 3,638 11.3 47.7°
Reaches altitude 10° 09:01:24 10° 195° (SSW) 2,704 10.8 47.2°
Maximum altitude 09:07:44 74° 111° (ESE) 1,016 8.7 45.8°
Drops below altitude 10° 09:14:06 10° 28° (NNE) 2,727 10.2 44.4°
Sets 09:16:41 0° 26° (NNE) 3,671 10.7 43.8°
